EW9366 Weather Reports


Display with metric or nautical units.
time (UTC)temp
F
wind
direction
speed
MPH
gust
MPH
rain 1hr
in
rain 24hr
in
rain mn
in
humidity
%
barometer
mb
20260509171337 83 245 1.0 3.0 0.00 0.07 0.01 57 1011.8
20260509170832 83 221 0.0 2.0 0.00 0.07 0.01 56 1011.9
20260509170317 82 75 0.0 2.0 0.00 0.07 0.01 55 1011.6
20260509165815 82 104 0.0 2.0 0.00 0.07 0.01 58 1011.6
20260509165757 81 134 1.0 3.0 0.00 0.07 0.01 58 1011.6
20260509164809 81 106 1.0 3.0 0.00 0.07 0.01 62 1011.6
20260509164242 82 11 1.0 3.0 0.00 0.07 0.01 58 1011.5
20260509164213 81 181 1.0 6.0 0.00 0.07 0.01 63 1011.5
20260509163206 82 244 1.0 6.0 0.00 0.07 0.01 57 1011.6
20260509162709 82 188 0.0 1.0 0.00 0.07 0.01 64 1011.8
20260509162635 81 195 1.0 5.0 0.00 0.07 0.01 68 1011.8
20260509161622 80 193 2.0 5.0 0.00 0.07 0.01 63 1011.8
20260509161124 81 248 0.0 4.0 0.00 0.07 0.01 62 1011.9
20260509160621 81 206 0.0 1.0 0.00 0.07 0.01 66 1012.0
20260509160119 80 157 0.0 1.0 0.00 0.07 0.01 68 1011.9
20260509155553 80 148 0.0 3.0 0.00 0.07 0.01 67 1011.9
20260509155024 81 71 0.0 3.0 0.00 0.07 0.01 61 1011.8
20260509154516 81 163 0.0 0.0 0.00 0.07 0.01 66 1011.8
20260509154017 80 183 0.0 2.0 0.00 0.07 0.01 65 1011.8
20260509153519 80 191 0.0 2.0 0.00 0.07 0.01 68 1011.8
20260509153001 79 152 0.0 2.0 0.00 0.07 0.01 68 1011.8
20260509152500 79 150 0.0 2.0 0.00 0.07 0.01 69 1011.9
20260509151956 78 200 1.0 3.0 0.00 0.07 0.01 70 1011.9
20260509151441 77 140 1.0 4.0 0.00 0.07 0.01 70 1011.9
20260509150911 78 243 1.0 4.0 0.00 0.07 0.01 67 1011.8
20260509150409 78 258 0.0 2.0 0.00 0.07 0.01 67 1011.8
20260509145842 77 208 0.0 1.0 0.00 0.07 0.01 71 1011.8
20260509145317 77 195 0.0 3.0 0.00 0.07 0.01 70 1011.6
20260509145241 77 231 0.0 3.0 0.00 0.07 0.01 68 1011.8
20260509144257 76 205 0.0 3.0 0.00 0.07 0.01 69 1011.6
20260509143759 76 190 1.0 3.0 0.00 0.07 0.01 71 1011.8
20260509143231 76 259 0.0 3.0 0.00 0.07 0.01 66 1011.6
20260509143147 76 195 0.0 1.0 0.00 0.07 0.01 70 1011.6
20260509142138 76 179 0.0 1.0 0.00 0.07 0.01 70 1011.6
20260509142116 76 146 0.0 0.0 0.00 0.07 0.01 69 1011.5
20260509141106 76 196 0.0 0.0 0.00 0.07 0.01 71 1011.5
20260509141022 75 202 0.0 0.0 0.00 0.07 0.01 72 1011.5
20260509140037 74 191 0.0 0.0 0.00 0.07 0.01 74 1011.5
20260509135533 73 191 0.0 0.0 0.00 0.07 0.01 75 1011.4
20260509135031 72 181 0.0 0.0 0.00 0.07 0.01 76 1011.4
20260509134504 72 186 0.0 0.0 0.00 0.07 0.01 76 1011.3
20260509134431 71 176 0.0 0.0 0.00 0.07 0.01 79 1011.2
20260509133415 70 204 0.0 0.0 0.00 0.07 0.01 81 1011.0
20260509132912 69 206 0.0 0.0 0.00 0.07 0.01 81 1011.0
20260509132345 68 173 0.0 0.0 0.00 0.07 0.01 86 1011.0
20260509131843 67 173 0.0 0.0 0.00 0.07 0.01 88 1010.8
20260509131317 67 185 0.0 0.0 0.00 0.07 0.01 90 1010.9
20260509130749 66 184 0.0 0.0 0.00 0.07 0.01 92 1010.9
20260509130247 65 184 0.0 0.0 0.00 0.07 0.01 92 1010.9
20260509125719 64 184 0.0 0.0 0.00 0.07 0.01 94 1010.8
20260509125151 64 199 0.0 0.0 0.00 0.07 0.01 96 1010.8
20260509125143 63 199 0.0 0.0 0.00 0.07 0.01 96 1010.8
20260509124139 63 199 0.0 0.0 0.00 0.07 0.01 95 1010.9
20260509123612 62 199 0.0 0.0 0.00 0.07 0.01 95 1010.8
20260509123053 61 199 0.0 0.0 0.00 0.07 0.01 96 1010.8
20260509122555 60 199 0.0 0.0 0.00 0.07 0.01 97 1010.7
20260509122050 59 199 0.0 0.0 0.00 0.07 0.01 97 1010.6
20260509121553 58 199 0.0 0.0 0.00 0.07 0.01 97 1010.5
20260509121034 56 200 0.0 0.0 0.00 0.07 0.01 97 1010.4
20260509120531 55 199 0.0 0.0 0.00 0.07 0.01 97 1010.3
20260509120451 53 200 0.0 0.0 0.00 0.07 0.01 97 1010.4
20260509115439 52 200 0.0 0.0 0.00 0.07 0.01 96 1010.3
20260509114914 51 200 0.0 0.0 0.00 0.07 0.01 96 1010.3
20260509114414 50 200 0.0 0.0 0.00 0.07 0.01 96 1010.3
20260509113912 49 200 0.0 0.0 0.00 0.07 0.01 96 1010.3
20260509113904 49 200 0.0 0.0 0.00 0.07 0.01 96 1010.3
20260509112843 49 200 0.0 0.0 0.00 0.07 0.01 95 1010.2
20260509112318 49 200 0.0 0.0 0.00 0.07 0.01 95 1010.2
20260509111821 49 200 0.0 0.0 0.00 0.07 0.01 95 1010.1
20260509111243 49 200 0.0 0.0 0.00 0.07 0.01 95 1010.0
20260509110719 49 200 0.0 0.0 0.00 0.07 0.01 95 1010.2
20260509110155 49 200 0.0 0.0 0.00 0.07 0.01 96 1010.1
20260509105633 49 200 0.0 0.0 0.00 0.07 0.01 96 1010.1
20260509105619 49 200 0.0 0.0 0.00 0.07 0.01 95 1009.9
20260509104602 49 200 0.0 0.0 0.00 0.07 0.01 95 1009.8
20260509104037 49 200 0.0 0.0 0.00 0.07 0.01 95 1009.9
20260509103507 49 200 0.0 0.0 0.00 0.07 0.01 95 1009.8
20260509103433 49 200 0.0 0.0 0.00 0.07 0.01 94 1009.8
20260509102437 50 200 0.0 0.0 0.00 0.07 0.01 94 1009.9
20260509102416 50 200 0.0 0.0 0.00 0.07 0.01 95 1009.9
20260509101843 50 200 0.0 0.0 0.00 0.07 0.01 94 1009.8
20260509100905 50 200 0.0 0.0 0.00 0.07 0.01 95 1009.8
20260509100825 50 200 0.0 0.0 0.00 0.07 0.01 95 1009.7
20260509095813 50 200 0.0 0.0 0.01 0.07 0.01 94 1009.7
20260509095248 50 200 0.0 0.0 0.01 0.07 0.01 94 1009.8
20260509094747 50 200 0.0 0.0 0.01 0.07 0.01 94 1009.9
20260509094238 50 200 0.0 0.0 0.01 0.07 0.01 94 1009.9
20260509093735 50 200 0.0 0.0 0.01 0.07 0.01 94 1009.9
20260509093232 51 200 0.0 0.0 0.01 0.07 0.01 94 1009.9
20260509092726 51 200 0.0 0.0 0.01 0.07 0.01 94 1010.0
20260509092222 51 200 0.0 0.0 0.01 0.07 0.01 94 1010.0
20260509092140 51 200 0.0 0.0 0.01 0.07 0.01 94 1010.0
20260509091152 51 200 0.0 0.0 0.01 0.07 0.01 94 1010.1
20260509090650 51 200 0.0 0.0 0.01 0.07 0.01 94 1010.2
20260509090151 51 200 0.0 0.0 0.01 0.07 0.01 94 1010.2
20260509085626 51 200 0.0 0.0 0.00 0.06 0.00 94 1010.2
20260509085119 51 200 0.0 0.0 0.00 0.06 0.00 94 1010.2
20260509084615 51 200 0.0 0.0 0.00 0.06 0.00 94 1010.2
20260509084551 51 200 0.0 0.0 0.00 0.06 0.00 94 1010.2
20260509083604 52 200 0.0 0.0 0.00 0.06 0.00 94 1010.2
20260509083101 52 200 0.0 0.0 0.00 0.06 0.00 94 1010.2
20260509082534 52 200 0.0 0.0 0.00 0.06 0.00 94 1010.2
20260509082007 52 200 0.0 0.0 0.00 0.06 0.00 94 1010.3
20260509081928 52 200 0.0 0.0 0.00 0.06 0.00 94 1010.4
20260509080911 52 200 0.0 0.0 0.00 0.06 0.00 94 1010.4
20260509080829 52 200 0.0 0.0 0.00 0.06 0.00 93 1010.5
20260509075828 52 200 0.0 0.0 0.00 0.06 0.00 94 1010.5
20260509075331 52 200 0.0 0.0 0.00 0.06 0.00 93 1010.4
20260509074817 53 200 0.0 0.0 0.00 0.06 0.00 93 1010.4
20260509074318 53 200 0.0 0.0 0.00 0.06 0.00 93 1010.4
20260509074241 53 200 0.0 0.0 0.00 0.06 0.00 93 1010.4
20260509073249 53 200 0.0 0.0 0.00 0.06 0.00 93 1010.4
20260509072738 53 200 0.0 0.0 0.00 0.06 0.00 93 1010.4
20260509072719 53 200 0.0 0.0 0.00 0.06 0.00 93 1010.3
20260509071714 53 200 0.0 0.0 0.00 0.06 0.00 93 1010.3
20260509071215 53 200 0.0 0.0 0.00 0.06 0.00 93 1010.3
20260509070712 53 200 0.0 0.0 0.00 0.06 0.00 93 1010.3
20260509070659 53 200 0.0 0.0 0.00 0.06 0.00 93 1010.4
20260509065654 53 200 0.0 0.0 0.00 0.06 0.00 92 1010.4
20260509065632 54 200 0.0 0.0 0.00 0.06 0.00 92 1010.4
20260509065126 54 200 0.0 0.0 0.00 0.06 0.00 92 1010.4
20260509064148 54 200 0.0 0.0 0.00 0.06 0.00 92 1010.5
20260509064125 54 200 0.0 0.0 0.00 0.06 0.00 92 1010.4
20260509063145 55 200 0.0 0.0 0.00 0.06 0.00 91 1010.5
20260509062644 55 200 0.0 0.0 0.00 0.06 0.00 92 1010.6
20260509062140 55 200 0.0 0.0 0.00 0.06 0.00 92 1010.6
20260509061641 55 203 0.0 0.0 0.00 0.06 0.00 93 1010.6
20260509061119 54 203 0.0 0.0 0.00 0.06 0.00 91 1010.6
20260509060602 54 203 0.0 0.0 0.00 0.06 0.00 91 1010.7
20260509060053 55 203 0.0 0.0 0.00 0.06 0.00 91 1010.8
20260509055533 55 203 0.0 0.0 0.00 0.06 0.00 91 1010.8
20260509055446 55 203 0.0 0.0 0.00 0.06 0.00 91 1010.7
20260509054453 55 203 0.0 0.0 0.00 0.06 0.00 89 1010.6
20260509053926 55 203 0.0 0.0 0.00 0.06 0.00 89 1010.6
20260509053401 55 203 0.0 0.0 0.00 0.06 0.00 88 1010.6
20260509053333 56 203 0.0 0.0 0.00 0.06 0.00 88 1010.6
20260509052316 56 203 0.0 0.0 0.00 0.06 0.00 87 1010.7
20260509051755 57 203 0.0 0.0 0.00 0.06 0.00 87 1010.8
20260509051257 57 203 0.0 0.0 0.00 0.06 0.00 87 1010.8
20260509050730 58 203 0.0 0.0 0.00 0.06 0.00 88 1010.8
20260509050209 58 203 0.0 0.0 0.00 0.06 0.00 88 1010.9
20260509045646 58 203 0.0 0.0 0.00 0.06 0.06 88 1010.8
20260509045124 58 203 0.0 0.0 0.00 0.06 0.06 88 1010.8
20260509045059 58 203 0.0 0.0 0.00 0.06 0.06 87 1010.8
20260509044122 58 203 0.0 0.0 0.00 0.06 0.06 87 1010.9
20260509043614 58 200 0.0 0.0 0.00 0.06 0.06 87 1010.8
20260509043110 59 200 0.0 1.0 0.00 0.06 0.06 87 1010.6
20260509042609 59 200 0.0 1.0 0.00 0.06 0.06 87 1010.6
20260509042108 59 254 0.0 2.0 0.00 0.06 0.06 87 1010.5
20260509041603 59 259 1.0 6.0 0.00 0.06 0.06 87 1010.4
20260509041036 59 208 1.0 6.0 0.00 0.06 0.06 88 1010.3
20260509040511 59 253 1.0 4.0 0.00 0.06 0.06 89 1010.1
20260509040013 58 211 1.0 3.0 0.00 0.06 0.06 89 1010.2
20260509035451 58 298 0.0 3.0 0.00 0.06 0.06 88 1010.1
20260509034952 58 209 0.0 1.0 0.00 0.06 0.06 87 1009.9
20260509034452 58 209 0.0 0.0 0.00 0.06 0.06 87 1009.8
20260509033929 59 209 0.0 0.0 0.00 0.06 0.06 86 1009.7
20260509033856 59 209 0.0 1.0 0.00 0.06 0.06 85 1009.5
20260509032908 60 209 0.0 1.0 0.00 0.06 0.06 85 1009.4
20260509032409 60 209 0.0 1.0 0.00 0.06 0.06 85 1009.4
20260509032335 60 210 0.0 1.0 0.00 0.06 0.06 84 1009.2
20260509031806 60 222 0.0 1.0 0.00 0.06 0.06 84 1009.1
20260509030759 60 153 0.0 1.0 0.00 0.06 0.06 84 1008.8
20260509030255 61 158 0.0 1.0 0.00 0.06 0.06 84 1008.6
20260509025755 61 178 0.0 2.0 0.00 0.06 0.06 84 1008.5
20260509025231 61 150 0.0 1.0 0.00 0.06 0.06 84 1008.4
20260509024709 61 200 0.0 3.0 0.00 0.06 0.06 84 1008.3
20260509024201 61 197 0.0 3.0 0.00 0.06 0.06 83 1008.2
20260509023711 62 143 0.0 3.0 0.00 0.06 0.06 82 1008.1
20260509023136 62 140 1.0 3.0 0.00 0.06 0.06 81 1008.1
20260509023129 62 148 1.0 3.0 0.00 0.06 0.06 80 1007.9
20260509022555 62 203 1.0 4.0 0.01 0.06 0.06 79 1008.0
20260509021619 62 162 1.0 4.0 0.01 0.06 0.06 78 1007.8
20260509021120 62 222 1.0 2.0 0.03 0.06 0.06 78 1007.9
20260509020616 62 193 1.0 5.0 0.03 0.06 0.06 77 1007.8
20260509020551 62 145 2.0 6.0 0.03 0.06 0.06 78 1007.9
20260509015540 62 205 2.0 6.0 0.04 0.06 0.06 77 1007.8
20260509015038 62 219 2.0 6.0 0.04 0.06 0.06 76 1007.6
20260509015033 62 189 2.0 6.0 0.04 0.06 0.06 77 1007.7
20260509014023 62 160 3.0 7.0 0.05 0.06 0.06 76 1007.4
20260509013516 62 195 3.0 7.0 0.06 0.06 0.06 76 1006.8
20260509012949 63 121 3.0 11.0 0.06 0.06 0.06 74 1007.3
20260509012433 64 205 3.0 11.0 0.06 0.06 0.06 72 1008.4
20260509011907 64 199 3.0 8.0 0.05 0.05 0.05 71 1008.6
20260509011341 65 282 3.0 9.0 0.04 0.04 0.04 69 1009.1
20260509010812 65 228 3.0 9.0 0.03 0.03 0.03 67 1008.7
20260509010250 65 315 4.0 19.0 0.03 0.03 0.03 69 1008.6
20260509005746 65 231 8.0 26.0 0.02 0.02 0.02 67 1008.6
20260509005222 67 269 7.0 26.0 0.02 0.02 0.02 68 1009.3
20260509004721 67 262 2.0 10.0 0.02 0.02 0.02 71 1009.3
20260509004153 68 129 2.0 6.0 0.01 0.01 0.01 74 1009.8
20260509003627 69 258 4.0 10.0 0.00 0.00 0.00 70 1010.2
20260509003124 70 259 3.0 10.0 0.00 0.00 0.00 68 1010.1
20260509002617 70 260 3.0 6.0 0.00 0.00 0.00 66 1009.9
20260509002052 70 252 3.0 6.0 0.00 0.00 0.00 65 1009.9
20260509001552 70 233 2.0 5.0 0.00 0.00 0.00 66 1009.6
20260509001051 70 248 0.0 2.0 0.00 0.00 0.00 64 1009.2
20260509000524 71 217 0.0 0.0 0.00 0.00 0.00 64 1008.7
20260509000008 71 217 0.0 0.0 0.00 0.00 0.00 62 1008.5
20260508235506 72 218 0.0 0.0 0.00 0.00 0.00 61 1008.1
20260508235002 72 217 0.0 0.0 0.00 0.00 0.00 62 1008.1
20260508234437 73 218 0.0 0.0 0.00 0.00 0.00 61 1008.1
20260508234358 73 218 0.0 0.0 0.00 0.00 0.00 59 1008.2
20260508233405 74 218 0.0 0.0 0.00 0.00 0.00 59 1008.2
20260508232840 74 218 0.0 1.0 0.00 0.00 0.00 59 1008.1
20260508232325 74 218 0.0 1.0 0.00 0.00 0.00 59 1008.3
20260508231759 75 218 2.0 7.0 0.00 0.00 0.00 55 1008.3
20260508231253 75 256 3.0 7.0 0.00 0.00 0.00 53 1008.4
20260508231241 76 253 3.0 7.0 0.00 0.00 0.00 52 1008.3
20260508230715 77 257 4.0 7.0 0.00 0.00 0.00 52 1008.4
20260508230148 77 243 3.0 7.0 0.00 0.00 0.00 53 1008.3
20260508225137 77 269 2.0 9.0 0.00 0.00 0.00 53 1008.5
20260508224611 77 257 1.0 9.0 0.00 0.00 0.00 52 1008.4
20260508224043 78 222 0.0 5.0 0.00 0.00 0.00 52 1008.3
20260508223541 79 212 1.0 7.0 0.00 0.00 0.00 51 1008.1
20260508223013 79 224 1.0 7.0 0.00 0.00 0.00 51 1008.0
20260508222446 80 229 1.0 5.0 0.00 0.00 0.00 53 1008.0
20260508221943 81 217 1.0 5.0 0.00 0.00 0.00 50 1008.1
20260508221441 80 255 1.0 5.0 0.00 0.00 0.00 50 1008.0
20260508220917 80 209 1.0 5.0 0.00 0.00 0.00 50 1008.0
20260508220415 81 221 0.0 4.0 0.00 0.00 0.00 50 1008.1
20260508220401 80 225 1.0 4.0 0.00 0.00 0.00 52 1008.0
20260508215416 80 211 1.0 4.0 0.00 0.00 0.00 52 1008.0
20260508214918 80 199 1.0 4.0 0.00 0.00 0.00 51 1007.9
20260508214415 80 205 0.0 3.0 0.00 0.00 0.00 54 1008.0
20260508214400 80 207 1.0 3.0 0.00 0.00 0.00 52 1008.1
20260508213849 80 200 1.0 3.0 0.00 0.00 0.00 52 1008.2
20260508212908 80 212 0.0 2.0 0.00 0.00 0.00 50 1008.3
20260508212407 80 188 1.0 3.0 0.00 0.00 0.00 53 1008.4
20260508211909 80 120 1.0 3.0 0.00 0.00 0.00 50 1008.3
20260508211342 80 210 1.0 3.0 0.00 0.00 0.00 51 1008.3
20260508210815 80 193 1.0 3.0 0.00 0.00 0.00 49 1008.3
20260508210313 80 208 1.0 4.0 0.00 0.00 0.00 51 1008.4
20260508210244 80 227 1.0 4.0 0.00 0.00 0.00 53 1008.4
20260508205306 80 160 1.0 4.0 0.00 0.00 0.00 49 1008.5
20260508204802 80 200 1.0 5.0 0.00 0.00 0.00 52 1008.7
20260508204237 80 198 1.0 5.0 0.00 0.00 0.00 50 1008.5
20260508204149 80 217 1.0 4.0 0.00 0.00 0.00 49 1008.6
20260508203141 80 228 2.0 5.0 0.00 0.00 0.00 49 1008.6
20260508202639 80 203 1.0 5.0 0.00 0.00 0.00 48 1008.7
20260508202120 81 206 1.0 4.0 0.00 0.00 0.00 52 1008.7
20260508201623 80 148 1.0 4.0 0.00 0.00 0.00 51 1008.8
20260508201055 81 205 1.0 4.0 0.00 0.00 0.00 48 1008.8
20260508200552 81 146 1.0 3.0 0.00 0.00 0.00 46 1009.0
20260508200025 81 144 1.0 4.0 0.00 0.00 0.00 48 1009.1
20260508195522 81 190 1.0 4.0 0.00 0.00 0.00 49 1009.1
20260508194954 81 248 1.0 2.0 0.00 0.00 0.00 52 1009.2
20260508194428 80 190 1.0 3.0 0.00 0.00 0.00 52 1009.4
20260508193923 80 201 1.0 3.0 0.00 0.00 0.00 49 1009.5
20260508193918 80 176 1.0 5.0 0.00 0.00 0.00 50 1009.4
20260508192850 80 213 1.0 5.0 0.00 0.00 0.00 48 1009.4
20260508192326 80 121 1.0 4.0 0.00 0.00 0.00 51 1009.4
20260508191759 80 192 1.0 4.0 0.00 0.00 0.00 48 1009.6
20260508191231 80 168 1.0 4.0 0.00 0.00 0.00 48 1009.7
20260508190729 80 210 1.0 3.0 0.00 0.00 0.00 49 1009.7
20260508190706 80 212 1.0 3.0 0.00 0.00 0.00 48 1009.8
20260508185719 80 150 1.0 4.0 0.00 0.00 0.00 48 1009.9
20260508185206 80 131 1.0 4.0 0.00 0.00 0.00 49 1009.9
20260508184709 79 178 1.0 4.0 0.00 0.00 0.00 50 1010.0
20260508184139 79 140 1.0 3.0 0.00 0.00 0.00 48 1010.2
20260508183625 78 140 1.0 4.0 0.00 0.00 0.00 52 1010.2
20260508183602 78 148 1.0 4.0 0.00 0.00 0.00 50 1010.4
20260508183102 78 180 1.0 3.0 0.00 0.00 0.00 49 1010.5
20260508182055 78 134 1.0 4.0 0.00 0.00 0.00 53 1010.6
20260508181548 78 134 1.0 4.0 0.00 0.00 0.00 51 1010.6
20260508181022 79 117 1.0 5.0 0.00 0.00 0.00 51 1010.7
20260508181002 79 153 1.0 5.0 0.00 0.00 0.00 49 1010.9
20260508180013 79 191 1.0 3.0 0.00 0.00 0.00 50 1011.0
20260508175509 79 159 0.0 3.0 0.00 0.00 0.00 55 1011.2
20260508175006 79 202 1.0 3.0 0.00 0.00 0.00 56 1011.3
20260508174439 78 199 1.0 5.0 0.00 0.00 0.00 56 1011.4
20260508173935 78 153 1.0 5.0 0.00 0.00 0.00 57 1011.5
20260508173408 78 124 1.0 3.0 0.00 0.00 0.00 54 1011.5
20260508172855 78 212 1.0 3.0 0.00 0.00 0.00 56 1011.5
20260508172357 77 169 1.0 5.0 0.00 0.00 0.00 54 1011.8
20260508171841 77 134 1.0 5.0 0.00 0.00 0.00 56 1011.8
20260508171823 77 186 1.0 7.0 0.00 0.00 0.00 54 1012.0